CZ-3A DEB, 35554

Orbit data source: Space-Track

CZ-3A DEB, 35554 is space debris in HEO originally from a launch on Fri, 02 Feb 2007 UTC launched from the Xichang Space Center, China (XSC). Debris objects in space refer to the collection of defunct objects orbiting the Earth. Examples of debris include non-operational satellites, rocket bodies, and fragments generated from explosions, collisions, or faulty payload assembly.

Loading next visibility...
Identifier
35554, 2007-003N
Orbit
HEO
Country
Flag of CNCN / PRC
Related business
Manufacturer
Unknown
Mission
Spacecraft
Bus & Motor
Unknown
Mass
Unknown
Launch date (UTC)
2007-02-02 (19 years ago)
Launch vehicle
Unknown
Launch site
Xichang Space Center, China (XSC)
Object type
Payload
Rocket body
Debris
Shape & HBR
Unknown shape, 0.3 m
Radar Cross Section
Medium (>0.1 m² and <1 m²)

Expand to show TLE details & history
Last TLE update: 4 days ago

TLE from 4 days ago
0 CZ-3A DEB
1 35554U 07003N   26058.14219022  .00000396  00000-0  77536-2 0  9992
2 35554  23.5883 259.9372 7514171 230.8125  34.7783  1.86112134 85278
Epoch: 2026-02-27T03:24Z
TLE epoch observation values (Epoch: 2026-02-27T03:24:45.235Z)
Latitude
-0.0004°
Longitude
51.70133°
Altitude
16,689.304 km
Speed
4.503 km/s
True Right ascension
17h 19m 29s
True Declination
0° 00' 01"
Sunlit
Object was in daylight at epoch
Visualization orbit readout
Latitude
Unknown
Longitude
Unknown
Altitude
Unknown
Speed
Unknown
Apparent Right ascension
Unknown
Apparent Declination
Unknown
Sunlit
N/A
Visualization observer readout
Local Sidereal Time
12:46:08
Azimuth
Unknown
Elevation
Unknown
Doppler factor
Unknown
Orbital elements
Apogee altitude
42,525.386 km
Perigee altitude
562.859 km
Semi-major axis
27,922.259 km
Eccentricity
0.75142
Inclination
23.5883°
RAAN
259.9372°
Arg. of periapsis
230.8125°
True anomaly
129.05174°
Mean anomaly
34.7783°
Eccentric anomaly
76.6717°
Mean motion
0.46518 °/min
Orbital period
773.9 mins
BSTAR
0.0077536
Loading maneuver chart data...
Computing Atmospheric mass density...
Loading historical data...
Loading historical data...
Loading historical data...
Loading historical data...
Loading historical data...
Loading historical data...
Loading historical data...

Documentation

Showing up to 5 results
|